Pond Inlet,

9:26 AM EDT on July 27, 2017 (GMT -0400)
Pond Inlet

Weather History for CYIO - September, 2012

Change the Weather History Date:

Tuesday, September 11, 2012

  Actual Average Record
Temperature  
Mean Temperature 35 °F -  
Max Temperature 38 °F 28 °F 46 °F (1998)
Min Temperature 32 °F 20 °F 24 °F (1999)
Degree Days  
Heating Degree Days 30    
Moisture  
Dew Point 33 °F    
Average Humidity 91    
Maximum Humidity 100    
Minimum Humidity 71    
Precipitation  
Precipitation 0.00 in - - ()
Sea Level Pressure  
Sea Level Pressure 29.43 in    
Wind  
Wind Speed 4 mph ()    
Max Wind Speed 7 mph    
Max Gust Speed -    
Visibility 11.0 miles    
Events Rain    
Averages and records for this station are not official NWS values.
T = Trace of Precipitation, MM = Missing Value Source: Averaged Metar Reports

Daily Weather History Graph

Daily Weather History Graph

Search for Another Location

Airport or City:

Trip Planner

Search our weather history database for the weather conditions in past years. The results will help you decide how hot, cold, wet, or windy it might be!

Date:

Astronomy

Sep. 11, 2012 Rise Set
Actual Time 6:00 AM EDT 8:13 PM EDT
Civil Twilight 4:42 AM EDT 9:30 PM EDT
Nautical Twilight 2:24 AM EDT 11:39 PM EDT
Astronomical Twilight Sun does not set Sun does not set
Moon 11:32 PM EDT (9/11) 8:18 PM EDT (9/11)
Length of Visible Light 16h 47m
Length of Day
14h 12m
Waning Crescent, 21% of the Moon is Illuminated
Sep 11
Waning Crescent
Sep 15
New
Sep 22
First Quarter
Sep 29
Full
Oct 8
Last Quarter

Hourly Weather History & Observations

Time (EDT) Temp. Windchill Dew Point Humidity Pressure Visibility Wind Dir Wind Speed Gust Speed Precip Events Conditions
12:00 AM 33.8 °F 27.7 °F 33.8 °F 100% 29.46 in 9.0 mi SSE 6.9 mph - N/A   Overcast
12:27 AM 35.6 °F 29.9 °F 33.8 °F 93% 29.44 in 9.0 mi SSE 6.9 mph - N/A Rain Light Rain
12:37 AM 35.6 °F 29.9 °F 33.8 °F 93% 29.44 in 9.0 mi SSE 6.9 mph - N/A Rain Light Rain
1:00 AM 35.6 °F 30.7 °F 33.8 °F 93% 29.44 in 9.0 mi SSE 5.8 mph - N/A Rain Light Rain
1:24 AM 33.8 °F 28.6 °F 33.8 °F 100% 29.43 in 9.0 mi SE 5.8 mph - N/A Rain Light Rain
2:00 AM 34 °F - 33 °F 94% 29.44 in 9 mi SE 5.8 mph - -   Overcast
2:00 AM 33.8 °F 28.6 °F 33.8 °F 100% 29.44 in 9.0 mi SE 5.8 mph - N/A Rain Light Rain
2:01 AM 33.8 °F 28.6 °F 33.8 °F 100% 29.42 in 9.0 mi SE 5.8 mph - N/A   Overcast
3:00 AM 33.8 °F 29.6 °F 33.8 °F 100% 29.43 in 9.0 mi SE 4.6 mph - N/A   Overcast
4:00 AM 33.8 °F - 33.8 °F 100% 29.43 in 9.0 mi East 2.3 mph - N/A   Overcast
5:00 AM 34 °F - 33 °F 94% 29.43 in 9 mi East 4.6 mph - -   Overcast
5:00 AM 33.8 °F 29.6 °F 33.8 °F 100% 29.43 in 9.0 mi East 4.6 mph - N/A   Overcast
5:18 AM 33.8 °F 30.8 °F 33.8 °F 100% 29.42 in 9.0 mi East 3.5 mph - N/A Rain Light Rain
5:24 AM 33.8 °F 30.8 °F 33.8 °F 100% 29.43 in 9.0 mi ESE 3.5 mph - N/A   Overcast
5:40 AM 33.8 °F 29.6 °F 33.8 °F 100% 29.42 in 9.0 mi ESE 4.6 mph - N/A Rain Light Rain
5:46 AM 33.8 °F 29.6 °F 32.0 °F 93% 29.41 in 9.0 mi SE 4.6 mph - N/A   Overcast
6:00 AM 33.8 °F 29.6 °F 32.0 °F 93% 29.42 in 9.0 mi SE 4.6 mph - N/A   Overcast
6:24 AM 33.8 °F 29.6 °F 32.0 °F 93% 29.42 in 9.0 mi ESE 4.6 mph - N/A Rain Light Rain
6:43 AM 33.8 °F 30.8 °F 33.8 °F 100% 29.40 in 9.0 mi ESE 3.5 mph - N/A   Overcast
7:00 AM 35.6 °F 32.8 °F 33.8 °F 93% 29.42 in 9.0 mi East 3.5 mph - N/A   Overcast
8:00 AM 35 °F - 33 °F 92% 29.43 in 9 mi NE 2.3 mph - -   Overcast
8:00 AM 35.6 °F - 33.8 °F 93% 29.43 in 9.0 mi Calm Calm - N/A   Overcast
9:00 AM 35.6 °F 32.8 °F 33.8 °F 93% 29.44 in 9.0 mi ENE 3.5 mph - N/A   Overcast
9:31 AM 35.6 °F 32.8 °F 33.8 °F 93% 29.41 in 9.0 mi ENE 3.5 mph - N/A Rain Light Rain
9:40 AM 35.6 °F 31.7 °F 33.8 °F 93% 29.40 in 9.0 mi East 4.6 mph - N/A   Overcast
10:00 AM 37.4 °F 34.9 °F 33.8 °F 87% 29.43 in 9.0 mi East 3.5 mph - N/A   Overcast
11:00 AM 37 °F - 33 °F 81% 29.42 in 9 mi NE 3.5 mph - -   Overcast
11:00 AM 37.4 °F 34.9 °F 33.8 °F 87% 29.43 in 20.0 mi NNE 3.5 mph - N/A   Overcast
12:00 PM 37.4 °F - 33.8 °F 87% 29.43 in 20.0 mi Calm Calm - N/A   Overcast
1:00 PM 37.4 °F - 33.8 °F 87% 29.44 in 20.0 mi WNW 2.3 mph - N/A   Overcast
2:00 PM 38 °F - 34 °F 79% 29.43 in 9 mi Calm Calm - -   Overcast
2:00 PM 37.4 °F - 33.8 °F 87% 29.43 in 20.0 mi Calm Calm - N/A   Overcast
3:00 PM 37.4 °F - 33.8 °F 87% 29.44 in 20.0 mi West 2.3 mph - N/A   Overcast
4:00 PM 37.4 °F - 35.6 °F 93% 29.44 in 20.0 mi WNW 2.3 mph - N/A   Overcast
5:00 PM 38 °F - 32 °F 71% 29.44 in 9 mi Calm Calm - -   Overcast
5:00 PM 37.4 °F - 32.0 °F 81% 29.45 in 20.0 mi West 2.3 mph - N/A   Overcast
6:00 PM 37.4 °F - 32.0 °F 81% 29.45 in 20.0 mi Calm Calm - N/A   Overcast
8:00 PM 36 °F - 31 °F 76% 29.46 in 9 mi SSW 2.3 mph - -  
8:00 PM 35.6 °F - 32.0 °F 87% 29.46 in 9.0 mi SSE 2.3 mph - N/A   Mostly Cloudy
9:00 PM 33.8 °F 30.8 °F 30.2 °F 87% 29.46 in 9.0 mi SW 3.5 mph - N/A   Scattered Clouds
10:00 PM 32.0 °F 26.4 °F 28.4 °F 87% 29.46 in 9.0 mi SSW 5.8 mph - N/A   Clear
11:00 PM 33 °F - 28 °F 77% 29.45 in 9 mi SW 5.8 mph - -  
11:00 PM 33.8 °F 28.6 °F 28.4 °F 81% 29.45 in 9.0 mi SW 5.8 mph - N/A   Clear